Eastsound, WA

6:16 AM PDT on June 23, 2017 (GMT -0700)
Orcas Island

Weather History for KORS - February, 2014

Change the Weather History Date:

Saturday, February 22, 2014

  Actual Average (KFHR) Record (KFHR)
Temperature  
Mean Temperature 34 °F -  
Max Temperature 35 °F 46 °F 55 °F (2004)
Min Temperature 32 °F 34 °F 30 °F (2011)
Degree Days  
Heating Degree Days 32    
Moisture  
Dew Point 34 °F    
Average Humidity 95    
Maximum Humidity 100    
Minimum Humidity 87    
Precipitation  
Precipitation 0.00 in - - ()
Sea Level Pressure  
Sea Level Pressure 30.14 in    
Wind  
Wind Speed 2 mph (SSE)    
Max Wind Speed 10 mph    
Max Gust Speed -    
Visibility 6 miles    
Events Rain , Snow    
Averages and records for this station are not official NWS values.
T = Trace of Precipitation, MM = Missing Value Source: NWS Daily Summary

Daily Weather History Graph

Daily Weather History Graph

Search for Another Location

Airport or City:

Trip Planner

Search our weather history database for the weather conditions in past years. The results will help you decide how hot, cold, wet, or windy it might be!

Date:

Astronomy

Feb. 22, 2014 Rise Set
Actual Time 7:06 AM PST 5:44 PM PST
Civil Twilight 6:34 AM PST 6:16 PM PST
Nautical Twilight 5:58 AM PST 6:52 PM PST
Astronomical Twilight 5:21 AM PST 7:29 PM PST
Moon 1:20 AM PST (2/22) 10:46 AM PST (2/22)
Length of Visible Light 11h 41m
Length of Day
10h 37m
Waning Gibbous, 49% of the Moon is Illuminated
Feb 22
Waning Gibbous
Mar 1
New
Mar 8
First Quarter
Mar 16
Full
Mar 23
Last Quarter

Hourly Weather History & Observations

Time (PST) Temp. Windchill Dew Point Humidity Pressure Visibility Wind Dir Wind Speed Gust Speed Precip Events Conditions
12:15 AM 33.8 °F - 32.0 °F 93% 30.23 in 10.0 mi Calm Calm - N/A   Mostly Cloudy
12:35 AM 33.8 °F - 32.0 °F 93% 30.23 in 10.0 mi Calm Calm - N/A   Mostly Cloudy
12:55 AM 35.6 °F - 32.0 °F 87% 30.23 in 10.0 mi Calm Calm - N/A   Mostly Cloudy
1:15 AM 35.6 °F - 32.0 °F 87% 30.23 in 10.0 mi Calm Calm - N/A   Mostly Cloudy
1:35 AM 35.6 °F - 32.0 °F 87% 30.22 in 10.0 mi Calm Calm - N/A   Mostly Cloudy
1:55 AM 35.6 °F - 32.0 °F 87% 30.22 in 10.0 mi Calm Calm - N/A   Overcast
2:15 AM 35.6 °F - 32.0 °F 87% 30.22 in 10.0 mi Calm Calm - N/A   Mostly Cloudy
2:35 AM 35.6 °F - 32.0 °F 87% 30.22 in 10.0 mi Calm Calm - N/A   Clear
2:55 AM 32.0 °F - 32.0 °F 100% 30.22 in 10.0 mi Calm Calm - N/A   Mostly Cloudy
3:15 AM 33.8 °F - 32.0 °F 93% 30.22 in 10.0 mi Calm Calm - N/A   Overcast
3:35 AM 33.8 °F - 32.0 °F 93% 30.22 in 10.0 mi Calm Calm - N/A   Overcast
3:55 AM 33.8 °F - 32.0 °F 93% 30.22 in 10.0 mi Calm Calm - N/A   Overcast
4:15 AM 33.8 °F - 32.0 °F 93% 30.21 in 10.0 mi Calm Calm - N/A   Overcast
4:35 AM 35.6 °F - 32.0 °F 87% 30.20 in 10.0 mi Calm Calm - N/A   Mostly Cloudy
4:55 AM 35.6 °F - 32.0 °F 87% 30.21 in 10.0 mi Calm Calm - N/A   Mostly Cloudy
5:15 AM 35.6 °F - 32.0 °F 87% 30.20 in 10.0 mi Calm Calm - N/A   Scattered Clouds
5:35 AM 35.6 °F - 32.0 °F 87% 30.20 in 6.0 mi Calm Calm - N/A   Mostly Cloudy
5:55 AM 35.6 °F - 32.0 °F 87% 30.20 in 5.0 mi Calm Calm - N/A Rain Light Rain
6:15 AM 35.6 °F - 33.8 °F 93% 30.20 in 8.0 mi Calm Calm - N/A   Scattered Clouds
6:35 AM 35.6 °F - 33.8 °F 93% 30.19 in 6.0 mi Calm Calm - N/A Rain Light Rain
6:55 AM 33.8 °F - 32.0 °F 93% 30.19 in 4.0 mi Calm Calm - N/A Rain Light Rain
7:15 AM 32.0 °F - 32.0 °F 100% 30.18 in 2.5 mi Calm Calm - N/A Snow Light Snow
7:35 AM 32.0 °F - 32.0 °F 100% 30.18 in 2.5 mi Calm Calm - N/A Snow Light Snow
7:55 AM 32.0 °F - 32.0 °F 100% 30.18 in 5.0 mi Calm Calm - N/A Snow Light Snow
8:15 AM 32.0 °F - 32.0 °F 100% 30.18 in 7.0 mi Calm Calm - N/A   Partly Cloudy
8:35 AM 33.8 °F - 32.0 °F 93% 30.18 in 7.0 mi Calm Calm - N/A   Partly Cloudy
8:55 AM 33.8 °F - 33.8 °F 100% 30.18 in 7.0 mi Calm Calm - N/A   Partly Cloudy
9:15 AM 35.6 °F - 33.8 °F 93% 30.18 in 5.0 mi Calm Calm - N/A   Clear
9:35 AM 35.6 °F - 33.8 °F 93% 30.18 in 6.0 mi Calm Calm - N/A Rain Light Rain
9:55 AM 35.6 °F 31.7 °F 33.8 °F 93% 30.18 in 5.0 mi South 4.6 mph - N/A Rain Light Rain
10:15 AM 35.6 °F - 33.8 °F 93% 30.18 in 5.0 mi Calm Calm - N/A Rain Light Rain
10:35 AM 35.6 °F 31.7 °F 33.8 °F 93% 30.18 in 4.0 mi South 4.6 mph - N/A Rain Light Rain
10:55 AM 35.6 °F 29.9 °F 33.8 °F 93% 30.18 in 3.0 mi South 6.9 mph - N/A Rain Light Rain
11:15 AM 35.6 °F 29.2 °F 35.6 °F 100% 30.17 in 5.0 mi South 8.1 mph - N/A Rain Light Rain
11:35 AM 35.6 °F 29.9 °F 35.6 °F 100% 30.17 in 5.0 mi South 6.9 mph - N/A Rain Light Rain
11:55 AM 35.6 °F 30.7 °F 33.8 °F 93% 30.17 in 5.0 mi South 5.8 mph - N/A Rain Light Rain
12:15 PM 35.6 °F 30.7 °F 33.8 °F 93% 30.16 in 7.0 mi South 5.8 mph - N/A Rain Light Rain
12:35 PM 35.6 °F 30.7 °F 33.8 °F 93% 30.15 in 5.0 mi South 5.8 mph - N/A Rain Light Rain
12:55 PM 35.6 °F 31.7 °F 33.8 °F 93% 30.14 in 5.0 mi South 4.6 mph - N/A Rain Light Rain
1:15 PM 35.6 °F 30.7 °F 35.6 °F 100% 30.14 in 3.0 mi South 5.8 mph - N/A Rain Light Rain
1:35 PM 35.6 °F 29.9 °F 35.6 °F 100% 30.13 in 4.0 mi South 6.9 mph - N/A Rain Light Rain
1:55 PM 35.6 °F 31.7 °F 35.6 °F 100% 30.12 in 4.0 mi South 4.6 mph - N/A Rain Light Rain
2:15 PM 35.6 °F 30.7 °F 35.6 °F 100% 30.11 in 4.0 mi South 5.8 mph - N/A Rain Light Rain
2:35 PM 35.6 °F 31.7 °F 35.6 °F 100% 30.11 in 5.0 mi South 4.6 mph - N/A Rain Light Rain
2:55 PM 35.6 °F 29.9 °F 35.6 °F 100% 30.11 in 5.0 mi South 6.9 mph - N/A Rain Light Rain
3:15 PM 35.6 °F 31.7 °F 35.6 °F 100% 30.10 in 3.0 mi South 4.6 mph - N/A Rain Light Rain
3:35 PM 35.6 °F 29.2 °F 35.6 °F 100% 30.10 in 4.0 mi South 8.1 mph - N/A Rain Light Rain
3:55 PM 35.6 °F 28.6 °F 35.6 °F 100% 30.09 in 5.0 mi South 9.2 mph - N/A Rain Light Rain
4:15 PM 35.6 °F 28.0 °F 35.6 °F 100% 30.09 in 4.0 mi South 10.4 mph - N/A Rain Light Rain
4:35 PM 35.6 °F 28.6 °F 33.8 °F 93% 30.08 in 4.0 mi South 9.2 mph - N/A Rain Light Rain
4:55 PM 35.6 °F 30.7 °F 35.6 °F 100% 30.08 in 5.0 mi South 5.8 mph - N/A Rain Light Rain
5:15 PM 35.6 °F 29.9 °F 35.6 °F 100% 30.07 in 5.0 mi South 6.9 mph - N/A Rain Light Rain
5:35 PM 35.6 °F 29.9 °F 35.6 °F 100% 30.07 in 5.0 mi South 6.9 mph - N/A Rain Light Rain
5:55 PM 35.6 °F 31.7 °F 35.6 °F 100% 30.07 in 5.0 mi South 4.6 mph - N/A Rain Light Rain
6:15 PM 35.6 °F 29.9 °F 35.6 °F 100% 30.06 in 5.0 mi South 6.9 mph - N/A Rain Light Rain
6:35 PM 35.6 °F 32.8 °F 35.6 °F 100% 30.06 in 6.0 mi SSE 3.5 mph - N/A Rain Light Rain
6:55 PM 35.6 °F - 35.6 °F 100% 30.06 in 7.0 mi Calm Calm - N/A Rain Light Rain
7:15 PM 35.6 °F - 35.6 °F 100% 30.06 in 6.0 mi Calm Calm - N/A Rain Light Rain
7:35 PM 35.6 °F - 33.8 °F 93% 30.05 in 6.0 mi Calm Calm - N/A Rain Light Rain
7:55 PM 35.6 °F - 35.6 °F 100% 30.05 in 5.0 mi Calm Calm - N/A Rain Light Rain
8:15 PM 35.6 °F 32.8 °F 33.8 °F 93% 30.05 in 5.0 mi ENE 3.5 mph - N/A Rain Rain
8:35 PM 35.6 °F - 33.8 °F 93% 30.05 in 6.0 mi North - - N/A Rain Light Rain
8:55 PM 35.6 °F - 33.8 °F 93% 30.05 in 5.0 mi Calm Calm - N/A Rain Light Rain
9:15 PM 33.8 °F - 33.8 °F 100% 30.05 in 6.0 mi Calm Calm - N/A Rain Light Rain
9:35 PM 35.6 °F 31.7 °F 33.8 °F 93% 30.05 in 5.0 mi ENE 4.6 mph - N/A Snow Light Snow
9:55 PM 33.8 °F 28.6 °F 33.8 °F 100% 30.05 in 5.0 mi ENE 5.8 mph - N/A Snow Light Snow
10:15 PM 33.8 °F - 33.8 °F 100% 30.05 in 5.0 mi Calm Calm - N/A Snow Light Snow
10:35 PM 33.8 °F 28.6 °F 33.8 °F 100% 30.05 in 4.0 mi NE 5.8 mph - N/A Snow Light Snow
10:55 PM 33.8 °F 28.6 °F 33.8 °F 100% 30.04 in 4.0 mi East 5.8 mph - N/A Snow Light Snow
11:15 PM 33.8 °F - 32.0 °F 93% 30.05 in 3.0 mi Calm Calm - N/A Snow Light Snow
11:35 PM 33.8 °F 28.6 °F 32.0 °F 93% 30.04 in 3.0 mi ENE 5.8 mph - N/A Snow Light Snow
11:55 PM 33.8 °F 30.8 °F 32.0 °F 93% 30.04 in 3.0 mi NNE 3.5 mph - N/A Snow Light Snow